When you browse on this site, cookies collect data to enhance your experience and personalize the content and advertising you see.
Visit our Privacy Policy to learn more. By continuing to use the site, you agree to this use of cookies and data.
  • In France
  • List of Countries
  • For 7 days
  • Water Temperature
  • Satellite Maps
  • Weather Map
  • Weather Widgets
  • user-avatar
    Login

    Hourly Weather Kalat

    Today, 17 February, Sunday

    Time Temperature Precipitation Wind Pressure Humidity
    00:00 -18°C° 0.1 mm 4 mps 465 mmHg 65%
    01:00 -17°C° 0.1 mm 4 mps 465 mmHg 71%
    02:00 -16°C° 0.1 mm 4 mps 465 mmHg 78%
    03:00 -17°C° 0.4 mm 5 mps 465 mmHg 81%
    04:00 -17°C° 0.4 mm 5 mps 466 mmHg 84%
    05:00 -17°C° 0.4 mm 5 mps 466 mmHg 87%
    06:00 -15°C° 0.3 mm 5 mps 466 mmHg 87%
    07:00 -15°C° 0.3 mm 5 mps 466 mmHg 86%
    08:00 -14°C° 0.3 mm 5 mps 467 mmHg 86%
    09:00 -13°C° 0.2 mm 5 mps 468 mmHg 85%
    10:00 -12°C° 0.2 mm 5 mps 468 mmHg 83%
    11:00 -11°C° 0.2 mm 6 mps 469 mmHg 82%
    12:00 -11°C° 0.3 mm 5 mps 469 mmHg 82%
    13:00 -10°C° 0.3 mm 5 mps 469 mmHg 82%
    14:00 -10°C° 0.3 mm 5 mps 469 mmHg 82%
    15:00 -10°C° 0.5 mm 4 mps 468 mmHg 84%
    16:00 -10°C° 0.5 mm 4 mps 468 mmHg 86%
    17:00 -10°C° 0.5 mm 3 mps 467 mmHg 89%
    18:00 -12°C° 0.6 mm 3 mps 467 mmHg 89%
    19:00 -12°C° 0.6 mm 2 mps 466 mmHg 90%
    20:00 -13°C° 0.6 mm 2 mps 466 mmHg 91%
    21:00 -14°C° 0.5 mm 2 mps 466 mmHg 91%
    22:00 -12°C° 0.5 mm 1 mps 465 mmHg 91%
    23:00 -13°C° 0.5 mm 1 mps 465 mmHg 91%

    Tomorrow, 18 February, Monday

    Time Temperature Precipitation Wind Pressure Humidity
    00:00 -13°C° 0.4 mm 1 mps 464 mmHg 91%
    01:00 -15°C° 0.4 mm 2 mps 464 mmHg 90%
    02:00 -15°C° 0.4 mm 2 mps 464 mmHg 90%
    03:00 -15°C° 0.3 mm 2 mps 463 mmHg 90%
    04:00 -15°C° 0.3 mm 2 mps 463 mmHg 89%
    05:00 -16°C° 0.3 mm 2 mps 463 mmHg 89%
    06:00 -15°C° 0.3 mm 2 mps 463 mmHg 89%
    07:00 -15°C° 0.3 mm 2 mps 463 mmHg 90%
    08:00 -15°C° 0.3 mm 2 mps 463 mmHg 90%
    09:00 -14°C° 0.3 mm 2 mps 464 mmHg 87%
    10:00 -14°C° 0.3 mm 3 mps 464 mmHg 84%
    11:00 -14°C° 0.3 mm 3 mps 465 mmHg 81%
    12:00 -13°C° 0.3 mm 3 mps 465 mmHg 79%
    13:00 -13°C° 0.3 mm 3 mps 465 mmHg 78%
    14:00 -13°C° 0.3 mm 3 mps 465 mmHg 77%
    15:00 -13°C° 0.3 mm 3 mps 465 mmHg 81%
    16:00 -14°C° 0.3 mm 3 mps 465 mmHg 84%
    17:00 -13°C° 0.3 mm 2 mps 465 mmHg 88%
    18:00 -15°C° 0.1 mm 2 mps 464 mmHg 89%
    19:00 -14°C° 0.1 mm 1 mps 463 mmHg 90%
    20:00 -16°C° 0.1 mm 1 mps 462 mmHg 91%
    21:00 -17°C° 0 mm 1 mps 461 mmHg 91%
    22:00 -19°C° 0 mm 1 mps 460 mmHg 91%
    23:00 -20°C° 0 mm 1 mps 459 mmHg 91%

    Day after tomorrow, 19 February, Tuesday

    Time Temperature Precipitation Wind Pressure Humidity
    00:00 -20°C° 0 mm 1 mps 459 mmHg 90%
    01:00 -24°C° 0 mm 2 mps 459 mmHg 88%
    02:00 -24°C° 0 mm 2 mps 458 mmHg 87%
    03:00 -25°C° 0 mm 2 mps 458 mmHg 86%
    04:00 -25°C° 0 mm 2 mps 458 mmHg 85%
    05:00 -25°C° 0 mm 2 mps 458 mmHg 85%
    06:00 -24°C° 0 mm 2 mps 458 mmHg 84%
    07:00 -25°C° 0 mm 3 mps 459 mmHg 83%
    08:00 -24°C° 0 mm 3 mps 459 mmHg 82%
    09:00 -21°C° 0 mm 3 mps 461 mmHg 78%
    10:00 -17°C° 0 mm 3 mps 463 mmHg 74%
    11:00 -14°C° 0 mm 3 mps 465 mmHg 71%
    12:00 -15°C° 0 mm 4 mps 465 mmHg 69%
    13:00 -14°C° 0 mm 4 mps 465 mmHg 68%
    14:00 -14°C° 0 mm 4 mps 466 mmHg 67%
    15:00 -14°C° 0.1 mm 4 mps 466 mmHg 70%
    16:00 -15°C° 0.1 mm 4 mps 465 mmHg 74%
    17:00 -15°C° 0.1 mm 3 mps 465 mmHg 77%
    18:00 -18°C° 0.1 mm 4 mps 464 mmHg 79%
    19:00 -20°C° 0.1 mm 4 mps 464 mmHg 81%
    20:00 -23°C° 0.1 mm 4 mps 463 mmHg 82%
    21:00 -22°C° 0.1 mm 4 mps 463 mmHg 83%
    22:00 -22°C° 0.1 mm 4 mps 464 mmHg 84%
    23:00 -21°C° 0.1 mm 3 mps 465 mmHg 84%

    20 February, Wednesday

    Time Temperature Precipitation Wind Pressure Humidity
    00:00 -21°C° 0.2 mm 3 mps 464 mmHg 85%
    01:00 -19°C° 0.2 mm 3 mps 464 mmHg 85%
    02:00 -19°C° 0.2 mm 3 mps 464 mmHg 86%
    03:00 -19°C° 0.3 mm 3 mps 464 mmHg 87%
    04:00 -19°C° 0.3 mm 3 mps 464 mmHg 87%
    05:00 -18°C° 0.3 mm 3 mps 465 mmHg 88%
    06:00 -18°C° 0.2 mm 3 mps 465 mmHg 87%
    07:00 -17°C° 0.2 mm 3 mps 466 mmHg 87%
    08:00 -18°C° 0.2 mm 4 mps 466 mmHg 86%
    09:00 -16°C° 0.1 mm 4 mps 467 mmHg 83%
    10:00 -15°C° 0.1 mm 4 mps 468 mmHg 79%
    11:00 -14°C° 0.1 mm 5 mps 469 mmHg 76%
    12:00 -13°C° 0.2 mm 5 mps 469 mmHg 76%
    13:00 -12°C° 0.2 mm 4 mps 469 mmHg 75%
    14:00 -12°C° 0.2 mm 4 mps 469 mmHg 75%
    15:00 -12°C° 0.2 mm 4 mps 469 mmHg 77%
    16:00 -12°C° 0.2 mm 3 mps 469 mmHg 80%
    17:00 -13°C° 0.2 mm 3 mps 469 mmHg 83%
    18:00 -14°C° 0.2 mm 3 mps 469 mmHg 83%
    19:00 -15°C° 0.2 mm 3 mps 468 mmHg 83%
    20:00 -17°C° 0.2 mm 4 mps 468 mmHg 84%
    21:00 -17°C° 0.1 mm 4 mps 468 mmHg 83%
    22:00 -17°C° 0.1 mm 3 mps 467 mmHg 83%
    23:00 -17°C° 0.1 mm 3 mps 467 mmHg 83%

    21 February, Thursday

    Time Temperature Precipitation Wind Pressure Humidity
    00:00 -17°C° 0.1 mm 3 mps 467 mmHg 83%
    01:00 -17°C° 0.1 mm 3 mps 466 mmHg 83%
    02:00 -17°C° 0.1 mm 3 mps 466 mmHg 83%
    03:00 -17°C° 0.1 mm 3 mps 465 mmHg 83%
    04:00 -18°C° 0.1 mm 3 mps 465 mmHg 83%
    05:00 -18°C° 0.1 mm 3 mps 465 mmHg 83%
    06:00 -17°C° 0.1 mm 3 mps 465 mmHg 83%
    07:00 -17°C° 0.1 mm 3 mps 466 mmHg 84%
    08:00 -16°C° 0.1 mm 3 mps 466 mmHg 85%
    09:00 -15°C° 0.2 mm 3 mps 467 mmHg 81%
    10:00 -15°C° 0.2 mm 4 mps 469 mmHg 78%
    11:00 -12°C° 0.2 mm 4 mps 470 mmHg 74%
    12:00 -13°C° 0.2 mm 5 mps 470 mmHg 74%
    13:00 -13°C° 0.2 mm 5 mps 470 mmHg 74%
    14:00 -13°C° 0.2 mm 5 mps 470 mmHg 74%
    15:00 -14°C° 0.2 mm 4 mps 469 mmHg 76%
    16:00 -13°C° 0.2 mm 3 mps 469 mmHg 79%
    17:00 -14°C° 0.2 mm 3 mps 469 mmHg 81%
    18:00 -16°C° 0 mm 3 mps 467 mmHg 81%
    19:00 -19°C° 0 mm 3 mps 466 mmHg 82%
    20:00 -23°C° 0 mm 4 mps 464 mmHg 82%
    21:00 -24°C° 0 mm 4 mps 464 mmHg 82%
    22:00 -25°C° 0 mm 4 mps 464 mmHg 81%
    23:00 -25°C° 0 mm 4 mps 463 mmHg 80%

    22 February, Friday

    Time Temperature Precipitation Wind Pressure Humidity
    00:00 -26°C° 0 mm 4 mps 463 mmHg 78%
    01:00 -26°C° 0 mm 4 mps 463 mmHg 75%
    02:00 -26°C° 0 mm 4 mps 463 mmHg 73%
    03:00 -26°C° 0 mm 4 mps 463 mmHg 72%
    04:00 -26°C° 0 mm 4 mps 462 mmHg 71%
    05:00 -27°C° 0 mm 4 mps 462 mmHg 70%
    06:00 -26°C° 0 mm 4 mps 463 mmHg 68%
    07:00 -25°C° 0 mm 4 mps 464 mmHg 66%
    08:00 -25°C° 0 mm 4 mps 464 mmHg 64%
    09:00 -22°C° 0 mm 4 mps 466 mmHg 62%
    10:00 -17°C° 0 mm 3 mps 468 mmHg 60%
    11:00 -14°C° 0 mm 3 mps 470 mmHg 59%
    12:00 -13°C° 0 mm 3 mps 470 mmHg 58%
    13:00 -12°C° 0 mm 3 mps 470 mmHg 57%
    14:00 -12°C° 0 mm 3 mps 470 mmHg 56%
    15:00 -13°C° 0 mm 3 mps 469 mmHg 61%
    16:00 -13°C° 0 mm 2 mps 469 mmHg 66%
    17:00 -14°C° 0 mm 2 mps 468 mmHg 70%
    18:00 -17°C° 0 mm 2 mps 466 mmHg 73%
    19:00 -19°C° 0 mm 2 mps 465 mmHg 77%
    20:00 -23°C° 0 mm 3 mps 464 mmHg 80%
    21:00 -24°C° 0 mm 3 mps 463 mmHg 80%
    22:00 -25°C° 0 mm 3 mps 463 mmHg 80%
    23:00 -25°C° 0 mm 3 mps 463 mmHg 80%
    Show more